CAPE 3
1 47309U 21002A 23250.60369170 .00045369 00000-0 87091-3 0 9997
2 47309 60.6737 100.6311 0012128 338.0697 21.9881 15.47599280147018
AO-109
1 47311U 21002C 23250.17924229 .00032947 00000-0 72588-3 0 9997
2 47311 60.6786 102.2559 0009808 339.9372 20.1338 15.43722974146929
ExoCube 2
1 47319U 21002L 23250.61445080 .00033258 00000-0 75575-3 0 9992
2 47319 60.6766 103.1303 0010733 338.1573 21.9064 15.42787733146912
UVSQ-SAT
1 47438U 21006AB 23250.14590996 .00017427 00000-0 65798-3 0 9999
2 47438 97.3761 306.1879 0010508 146.6615 213.5287 15.27025982145142
YUSAT 1
1 47439U 21006AC 23250.01607925 .00026628 00000-0 90517-3 0 9997
2 47439 97.3767 307.1812 0009931 144.5323 215.6580 15.30388087145194
SOMP 2b
1 47445U 21006AJ 23250.37395842 .00018657 00000-0 72237-3 0 9997
2 47445 97.3727 305.5301 0010235 150.7693 209.4120 15.26177419145146
IDEASSat
1 47458U 21006AX 23250.39216939 .00016255 00000-0 64511-3 0 9990
2 47458 97.3825 306.3486 0009728 149.4720 210.7086 15.25387225145124
CubeSX-Sirius-HSE
1 47951U 21022V 23250.74691075 .00010883 00000-0 58296-3 0 9997
2 47951 97.4851 146.8017 0019923 53.4591 306.8472 15.15012831135523
CubeSX-HSE
1 47952U 21022W 23250.71646140 .00011085 00000-0 59251-3 0 9995
2 47952 97.4853 146.8266 0019867 53.1487 307.1563 15.15083961135527
KSU-Cubesat
1 47954U 21022Y 23250.25453820 .00012687 00000-0 65790-3 0 9991
2 47954 97.4859 146.8718 0019196 53.1803 307.1187 15.16133434135203
GRBAlpha
1 47959U 21022AD 23250.56648190 .00010761 00000-0 57401-3 0 9997
2 47959 97.4855 146.7757 0019724 54.0805 306.2254 15.15166336134328
Orbicraft-Zorkiy
1 47960U 21022AE 23250.74676283 .00012659 00000-0 65875-3 0 9995
2 47960 97.4886 147.5080 0019171 51.9938 308.3022 15.16011264135069
STECCO
1 47962U 21022AG 23250.52400384 .00025240 00000-0 10567-2 0 9997
2 47962 97.4856 150.4601 0013671 44.1194 316.1131 15.23455258134562
MO-110
1 47964U 21022AJ 23250.26239964 .00026946 00000-0 10943-2 0 9996
2 47964 97.4868 150.9242 0015236 39.1945 321.0393 15.24446572134565
FEES
1 48082U 21022AL 23250.38314243 .00051704 00000-0 15593-2 0 9991
2 48082 97.4848 153.2651 0010613 39.6590 320.5427 15.34071115134436
TUBIN
1 48900U 21059X 23250.69959693 .00009650 00000-0 43882-3 0 9994
2 48900 97.6102 24.9601 0008570 2.6530 357.4749 15.20917508121715
IT-SPINS
1 49017U 21013G 23250.41128054 .00047688 00000-0 88166-3 0 9990
2 49017 51.5907 33.7618 0007169 270.9819 89.0347 15.48546068122426
LEDSAT
1 49069U 21073D 23250.15927034 .00010209 00000-0 53699-3 0 9991
2 49069 97.4755 319.7009 0023267 193.3062 166.7560 15.15610067113312
CUTE
1 49263U 21088D 23250.16073635 .00009391 00000-0 57695-3 0 9993
2 49263 97.5370 314.6007 0016374 346.6099 13.4694 15.10181210106651
TeikyoSat 4
1 49396U 21102B 23250.58403438 .00001276 00000-0 10015-3 0 9990
2 49396 97.5050 300.0131 0014597 151.8404 208.3614 15.02579400100149
Z-Sat
1 49399U 21102E 23250.72177520 .00002829 00000-0 20034-3 0 9996
2 49399 97.4770 301.2836 0022851 144.5394 215.7357 15.05404528100309
KOSEN 1
1 49402U 21102H 23250.62829586 .00005370 00000-0 35737-3 0 9996
2 49402 97.4697 301.8548 0021745 133.8068 226.4963 15.07352397100375
HO-113
1 50466U 21131B 23250.77583825 .00000567 00000-0 19788-3 0 9990
2 50466 98.5484 332.0578 0003223 244.9906 115.0947 14.39034857 89236
Tevel-3
1 50988U 22002E 23250.75854044 .00026138 00000-0 93982-3 0 9999
2 50988 97.4257 317.3292 0005564 302.7360 57.3343 15.28592270 91369
Tevel-8
1 50989U 22002F 23250.71561465 .00025777 00000-0 92907-3 0 9992
2 50989 97.4275 317.3542 0005523 302.1738 57.8966 15.28515708 91352
Tevel-5
1 50998U 22002Q 23250.72008833 .00027083 00000-0 94458-3 0 9993
2 50998 97.4253 317.7807 0006558 295.2620 64.7941 15.29576615 91396
Tevel-6
1 50999U 22002R 23250.71867339 .00026909 00000-0 93864-3 0 9993
2 50999 97.4251 317.7720 0006569 294.9084 65.1473 15.29572853 91396
Tevel-1
1 51013U 22002AF 23250.70564754 .00024828 00000-0 89460-3 0 9990
2 51013 97.4249 317.2045 0005428 302.7550 57.3167 15.28533611 91352
Grizu-263a
1 51025U 22002AT 23250.19290558 .00303584 00000-0 24348-2 0 9996
2 51025 97.4316 326.0647 0008474 250.3813 109.6535 15.70068053 91800
NO-116
1 51031U 22002AZ 23250.13990474 .00050857 00000-0 12859-2 0 9997
2 51031 97.4365 320.9272 0006950 284.6917 75.3558 15.39596783 91489
IRIS-A
1 51044U 22002BN 23250.15467377 .00010494 00000-0 47534-3 0 9996
2 51044 97.4271 314.4182 0006545 320.4967 39.5790 15.21035459 91110
Tevel-7
1 51062U 22002CG 23250.71538185 .00025626 00000-0 92295-3 0 9991
2 51062 97.4270 317.3250 0005498 301.5256 58.5446 15.28541720 91359
Tevel-4
1 51063U 22002CH 23250.72479010 .00026121 00000-0 94267-3 0 9996
2 51063 97.4268 317.3086 0005501 301.3820 58.6881 15.28472147 91354
Tevel-2
1 51069U 22002CP 23250.76004774 .00025870 00000-0 93003-3 0 9994
2 51069 97.4254 317.2995 0005505 302.5096 57.5611 15.28600337 91369
DELFI-PQ
1 51074U 22002CU 23250.20454111 .00062451 00000-0 13465-2 0 9992
2 51074 97.4509 324.0271 0006581 310.4682 49.5991 15.44341359 91620
SO-115
1 51080U 22002DA 23250.42030188 .00032947 00000-0 10327-2 0 9998
2 51080 97.4533 321.5630 0008095 331.4380 28.6417 15.32972508 91472
SO-114
1 51081U 22002DB 23250.65823318 .00031257 00000-0 97196-3 0 9992
2 51081 97.4529 321.7921 0008239 330.0339 30.0431 15.33235927 91518
OreSat0
1 52017U 22026K 23250.44775751 .00019649 00000-0 71807-3 0 9994
2 52017 97.5114 253.2688 0022372 148.2675 211.9918 15.27893647 82099
Planetum 1
1 52738U 22057G 23250.29400572 .00016515 00000-0 70983-3 0 9990
2 52738 97.5441 6.3923 0007246 68.1754 292.0252 15.22717448 71146
Foresail-1
1 52766U 22057AL 23250.79818405 .00011551 00000-0 52087-3 0 9994
2 52766 97.5566 7.7717 0012274 47.2517 312.9749 15.21119945 71233
SNUGLITE 2
1 52899U 22065F 23250.35550089 .00001394 00000-0 30289-3 0 9997
2 52899 98.0806 32.9743 0007142 327.3244 32.7513 14.59530069 62846
CTIM
1 52950U 22074G 23250.10219182 .00061665 00000-0 96069-3 0 9999
2 52950 44.9964 258.3162 0013025 40.4272 319.7587 15.52998324 66297
IO-117
1 53106U 22080B 23248.51952417 -.00000003 00000-0 00000-0 0 9994
2 53106 70.1477 291.8088 0008558 171.6392 188.4412 6.42557127 26919
AstroBioCubeSat
1 53107U 22080C 23025.30817895 -.00000003 00000-0 00000-0 0 9995
2 53107 70.1710 9.4734 0013545 210.3158 149.6718 6.42110537 12478
SelfieSat
1 53951U 22057BC 23250.74328136 .00023807 00000-0 95006-3 0 9998
2 53951 97.5483 7.7854 0008488 57.3979 302.8077 15.25136337 71258
FO-118
1 54684U 22167C 23250.76941606 .00014519 00000-0 75561-3 0 9993
2 54684 97.5726 27.9459 0013545 53.6763 306.5718 15.16059437 41184
SSS-2B
1 56184U 23054G 23250.72046435 .00015145 00000-0 61051-3 0 9993
2 56184 97.3980 144.6218 0012674 103.1586 257.1067 15.24850327 22742
CIRBE
1 56188U 23054L 23250.27264175 .00018612 00000-0 72677-3 0 9998
2 56188 97.3936 144.2120 0011236 98.2674 261.9839 15.25886756 22689
INSPIRE-Sat 7
1 56211U 23054AK 23250.64050844 .00020652 00000-0 75905-3 0 9996
2 56211 97.3955 144.9876 0016164 83.0390 277.2687 15.27807307 22761
